[[{"header":{"parameterUnit":"m.s-1","parameterCategory":1,"la1":30.2991,"la2":30.254,"lo1":-89.0895,"lo2":-89.0444,"dy":0.0017,"dx":0.0017,"nx":28,"ny":28,"refTime":"2024-08-29T09:00:00:Z","depth":0,"parameterNumber":2,"parameterNumberName":"U-component_of_WINDS"},"data":[0,0,0,0,0,0,0,0,0,0,0,0,0,0,0,0,0,0,0,0,0,0,0,0,0,0,0,0,0,0,0,0,0,0,0,0,0,0,0,0,0,0,0,0,0,0,0,0,0,0,0,0,0,0,0,0,0,0,-2.524,-2.524,0,-2.5301,-2.5302,-2.5302,-2.5311,-2.5311,-2.531,-2.531,-2.5371,-2.5373,-2.5375,0,0,0,0,0,0,0,0,0,0,0,0,0,-2.5128,-2.513,-2.524,-2.524,-2.5241,-2.5301,-2.5302,-2.5303,-2.5311,-2.5311,-2.531,-2.5309,-2.537,-2.5373,-2.5375,0,0,0,0,0,0,0,0,0,0,0,0,0,-2.5182,-2.5131,-2.524,-2.5253,-2.5255,-2.5301,-2.5302,-2.5303,-2.5311,-2.5311,-2.531,-2.5309,-2.5369,-2.5372,-2.5376,-2.5412,0,0,-2.5385,-2.5387,0,0,0,0,0,0,0,0,-2.5179,-2.5186,-2.525,-2.5252,-2.5254,-2.5298,-2.5285,-2.5339,-2.5312,-2.529,-2.531,-2.5309,-2.5347,-2.5352,-2.5365,-2.5415,-2.5418,-2.5386,-2.5388,-2.5389,-2.539,0,0,0,0,0,0,0,-2.5175,-2.5183,-2.5264,-2.5251,-2.5253,-2.5255,-2.5262,-2.5295,-2.5322,-2.5292,-2.5292,-2.53,-2.5348,-2.5362,-2.5367,-2.5419,-2.5386,-2.5388,-2.539,-2.5392,-2.55,-2.5501,0,0,0,0,0,0,-2.5169,-2.518,-2.5262,-2.5266,-2.5214,-2.5258,-2.5265,-2.5284,-2.5322,-2.5327,-2.53,-2.53,-2.5357,-2.5363,-2.5369,-2.5413,-2.5389,-2.5392,-2.5394,-2.5499,-2.5501,-2.5502,0,0,0,0,0,0,-2.5167,-2.5176,-2.5259,-2.5223,-2.5234,-2.5261,-2.5282,-2.5286,-2.53,-2.5329,-2.5333,-2.531,-2.5357,-2.5364,-2.5401,-2.5416,-2.5393,-2.5396,-2.5498,-2.55,-2.5501,-2.5503,0,0,0,0,0,0,-2.5164,-2.5175,-2.519,-2.5224,-2.5236,-2.5291,-2.5283,-2.5288,-2.5306,-2.5306,-2.5339,-2.5343,-2.5357,-2.5396,-2.5404,-2.542,-2.5399,-2.5497,-2.5499,-2.5501,-2.5502,-2.5504,-2.5506,0,0,0,0,0,-2.516,-2.5188,-2.5191,-2.5201,-2.5255,-2.5292,-2.5299,-2.5314,-2.5307,-2.5322,-2.534,-2.5342,-2.5413,-2.54,-2.5409,-2.5426,-2.5496,-2.5498,-2.5501,-2.55,-2.5504,-2.5506,0,0,0,0,0,0,-2.5155,-2.5193,-2.5196,-2.5237,-2.5261,-2.5293,-2.5312,-2.5317,-2.5344,-2.5342,-2.5359,-2.5367,-2.5402,-2.5418,-2.5403,-2.5463,-2.5454,-2.5458,-2.5451,-2.5454,-2.5456,-2.5451,-2.5402,0,0,0,0,0,-2.5159,-2.5187,-2.5218,-2.525,-2.5263,-2.5285,-2.5302,-2.5312,-2.5337,-2.5348,-2.5369,-2.5393,-2.5421,-2.5439,-2.5466,-2.5504,-2.5511,-2.552,-2.5522,-2.5524,-2.5527,-2.5548,-2.5552,-2.5509,-2.5509,-2.5509,0,0,-2.5167,-2.5191,-2.5207,-2.525,-2.527,-2.5298,-2.5294,-2.5323,-2.5344,-2.5352,-2.5388,-2.5404,-2.5433,-2.547,-2.5488,-2.5484,-2.5541,-2.5527,-2.5528,-2.553,-2.555,-2.5554,-2.5558,-2.551,-2.551,-2.551,0,0,-2.5195,-2.5217,-2.5246,-2.5266,-2.5297,-2.5312,-2.5319,-2.535,-2.5361,-2.5398,-2.5404,-2.5429,-2.5476,-2.5496,-2.5512,-2.5548,-2.5551,-2.5556,-2.5568,-2.5588,-2.5591,-2.5594,-2.5605,-2.5609,-2.5559,-2.5559,-2.5559,0,-2.5201,-2.5243,-2.526,-2.5289,-2.5307,-2.5317,-2.5345,-2.5364,-2.5402,-2.5414,-2.541,-2.5469,-2.5489,-2.5531,-2.5539,-2.5553,-2.556,-2.5552,-2.5589,-2.5593,-2.5596,-2.5607,-2.5611,-2.556,-2.556,-2.556,-2.556,0,-2.5248,-2.5277,-2.5297,-2.5333,-2.5354,-2.5382,-2.5403,-2.5421,-2.5429,-2.5444,-2.5481,-2.5505,-2.5537,-2.5548,-2.5556,-2.559,-2.5587,-2.5586,-2.5577,-2.56,-2.561,-2.5615,-2.556,-2.556,-2.556,-2.556,0,0,-2.5275,-2.532,-2.5327,-2.5343,-2.5377,-2.54,-2.5429,-2.546,-2.5475,-2.5501,-2.5525,-2.5565,-2.5564,-2.5582,-2.5593,-2.561,-2.5635,-2.5607,-2.5608,-2.561,-2.5674,-2.5673,-2.5678,-2.5638,-2.5639,-2.564,-2.5671,0,-2.5306,-2.5358,-2.5373,-2.5417,-2.5443,-2.5452,-2.5477,-2.5501,-2.5516,-2.554,-2.5557,-2.5584,-2.5582,-2.5593,-2.5611,-2.5628,-2.5648,-2.5627,-2.5659,-2.566,-2.565,-2.5684,-2.5683,-2.5711,-2.5675,-2.5676,-2.5676,0,-2.5349,-2.5375,-2.5421,-2.5452,-2.5463,-2.5485,-2.5515,-2.5538,-2.5565,-2.5575,-2.5595,-2.5604,-2.5634,-2.5625,-2.5665,-2.565,-2.5665,-2.5676,-2.5677,-2.5679,-2.5668,-2.5685,-2.5721,-2.5724,-2.5683,-2.5683,-2.5682,0,-2.5362,-2.5409,-2.5442,-2.5456,-2.5493,-2.5508,-2.5524,-2.555,-2.5567,-2.5593,-2.5604,-2.5634,-2.5649,-2.5671,-2.5687,-2.5679,-2.5726,-2.5719,-2.5734,-2.5733,-2.5742,-2.5741,-2.5778,-2.5754,-2.5754,-2.5754,-2.5753,0,-2.5394,-2.5421,-2.5448,-2.5468,-2.5499,-2.5517,-2.5546,-2.5563,-2.5586,-2.5609,-2.5619,-2.5641,-2.5661,-2.5685,-2.5698,-2.5729,-2.5737,-2.5744,-2.5747,-2.5743,-2.5741,-2.5751,-2.5749,-2.5755,-2.5754,-2.5754,-2.5754,0,-2.5413,-2.5432,-2.5469,-2.55,-2.5509,-2.553,-2.5557,-2.5577,-2.5592,-2.5621,-2.5629,-2.5653,-2.5682,-2.5701,-2.5738,-2.5746,-2.578,-2.5783,-2.577,-2.5771,-2.5785,-2.5783,-2.5829,-2.5836,-2.5808,-2.5808,-2.5808,0,-2.5431,-2.5452,-2.5486,-2.5502,-2.5518,-2.5545,-2.5563,-2.5581,-2.5599,-2.5631,-2.5646,-2.5676,-2.57,-2.5746,-2.5766,-2.5794,-2.5797,-2.5812,-2.5801,-2.5796,-2.5796,-2.5794,-2.5795,-2.5813,-2.5813,-2.5813,-2.5813,0,-2.5461,-2.547,-2.5495,-2.5524,-2.5545,-2.5569,-2.5593,-2.5605,-2.5628,-2.5647,-2.5677,-2.5696,-2.5733,-2.5762,-2.5792,-2.5808,-2.5814,-2.5816,-2.5821,-2.5816,-2.5807,-2.5811,-2.5773,-2.5815,-2.5815,-2.5815,-2.5815,-2.5814,-2.548,-2.5498,-2.5525,-2.5553,-2.5572,-2.5594,-2.5614,-2.5632,-2.5657,-2.5689,-2.5698,-2.5729,-2.5755,-2.5795,-2.5812,-2.5836,-2.5834,-2.5841,-2.5843,-2.5844,-2.5843,-2.5805,-2.5841,-2.5841,-2.5841,-2.5841,-2.5841,0,-2.5509,-2.5526,-2.5552,-2.5585,-2.5606,-2.5611,-2.5637,-2.5655,-2.5682,-2.5705,-2.5729,-2.5763,-2.5791,-2.5814,-2.5843,-2.5857,-2.586,-2.5864,-2.5862,-2.5866,-2.5844,-2.5836,-2.5861,-2.5861,-2.5861,-2.5861,-2.5861,-2.5861,-2.5527,-2.5558,-2.557,-2.5611,-2.5629,-2.5659,-2.5673,-2.5693,-2.5712,-2.5749,-2.5772,-2.5787,-2.581,-2.5841,-2.5866,-2.5872,-2.5882,-2.5884,-2.5891,-2.5869,-2.5867,-2.5865,-2.5858,-2.5887,-2.5887,-2.591,-2.5911,-2.5911]},{"header":{"parameterUnit":"m.s-1","parameterCategory":1,"la1":30.2991,"la2":30.254,"lo1":-89.0895,"lo2":-89.0444,"dy":0.0017,"dx":0.0017,"nx":28,"ny":28,"refTime":"2024-08-29T09:00:00:Z","depth":0,"parameterNumber":3,"parameterNumberName":"V-component_of_WINDS"},"data":[0,0,0,0,0,0,0,0,0,0,0,0,0,0,0,0,0,0,0,0,0,0,0,0,0,0,0,0,0,0,0,0,0,0,0,0,0,0,0,0,0,0,0,0,0,0,0,0,0,0,0,0,0,0,0,0,0,0,4.0531,4.0532,0,4.062,4.0621,4.0622,4.0566,4.0564,4.0561,4.0559,4.0644,4.0649,4.0654,0,0,0,0,0,0,0,0,0,0,0,0,0,4.0304,4.0309,4.0531,4.0532,4.0533,4.062,4.0621,4.0622,4.0567,4.0564,4.0561,4.0558,4.0643,4.0648,4.0654,0,0,0,0,0,0,0,0,0,0,0,0,0,4.0399,4.031,4.053,4.0516,4.0515,4.062,4.0621,4.0623,4.0568,4.0564,4.056,4.0556,4.0641,4.0648,4.0655,4.0777,0,0,4.0676,4.068,0,0,0,0,0,0,0,0,4.0394,4.0407,4.0517,4.0517,4.0517,4.0578,4.0573,4.0674,4.0569,4.0548,4.0559,4.0554,4.0625,4.0633,4.0658,4.0781,4.0784,4.0677,4.0681,4.0684,4.0686,0,0,0,0,0,0,0,4.0387,4.0403,4.0566,4.0518,4.0518,4.0502,4.0512,4.0592,4.0607,4.0549,4.0545,4.0557,4.0624,4.0652,4.066,4.0786,4.0677,4.0683,4.0688,4.069,4.1009,4.1013,0,0,0,0,0,0,4.0383,4.0398,4.0563,4.0568,4.0445,4.051,4.052,4.0562,4.0606,4.0609,4.056,4.0554,4.0642,4.0652,4.0663,4.0806,4.0684,4.0691,4.0695,4.1005,4.101,4.1015,0,0,0,0,0,0,4.0378,4.0398,4.0559,4.0482,4.0502,4.0518,4.0566,4.0566,4.0594,4.0615,4.0616,4.0586,4.0639,4.0653,4.0749,4.0809,4.0694,4.0701,4.1,4.1007,4.1013,4.1096,0,0,0,0,0,0,4.0372,4.0397,4.0445,4.0484,4.0506,4.0646,4.057,4.0571,4.0607,4.0599,4.0639,4.0642,4.0637,4.0738,4.0756,4.0816,4.0706,4.0995,4.1003,4.1011,4.1088,4.1104,4.1118,0,0,0,0,0,4.0364,4.0464,4.0448,4.0468,4.0567,4.065,4.0662,4.0656,4.0612,4.0659,4.0672,4.0641,4.08,4.0749,4.0768,4.0831,4.0991,4.1001,4.101,4.1081,4.1101,4.1118,0,0,0,0,0,0,4.043,4.0469,4.0451,4.0567,4.0606,4.064,4.07,4.0678,4.0728,4.0719,4.0708,4.0717,4.0817,4.0834,4.0776,4.095,4.0888,4.0902,4.0935,4.0955,4.097,4.0962,4.0712,0,0,0,0,0,4.0458,4.0524,4.0554,4.0653,4.0674,4.0684,4.0719,4.0712,4.075,4.0765,4.0786,4.0822,4.088,4.0919,4.0973,4.109,4.1096,4.1143,4.1158,4.1171,4.1182,4.1243,4.1263,4.1046,4.1046,4.1046,0,0,4.0517,4.0546,4.0588,4.0667,4.0696,4.0762,4.0698,4.0771,4.0818,4.0776,4.0867,4.0884,4.0923,4.103,4.1078,4.1047,4.1244,4.1183,4.1193,4.1197,4.1255,4.1275,4.1293,4.1053,4.1052,4.1051,0,0,4.0657,4.0687,4.0772,4.0803,4.0848,4.0853,4.0874,4.0912,4.0921,4.1013,4.0982,4.1038,4.1139,4.1168,4.1196,4.1346,4.1318,4.1364,4.1443,4.1502,4.1519,4.1534,4.1585,4.1604,4.1376,4.1376,4.1376,0,4.0723,4.0824,4.0818,4.0893,4.0928,4.0894,4.0978,4.1007,4.1067,4.1091,4.1056,4.1181,4.1206,4.1317,4.1354,4.1379,4.1399,4.1359,4.1518,4.1533,4.1547,4.1595,4.1615,4.1381,4.1381,4.138,4.138,0,4.0901,4.0971,4.1034,4.1095,4.1136,4.1216,4.122,4.1262,4.1251,4.1259,4.1352,4.1381,4.144,4.1466,4.1455,4.1575,4.1555,4.152,4.1456,4.1573,4.1618,4.1637,4.1389,4.1387,4.1385,4.1384,0,0,4.1085,4.1141,4.1164,4.119,4.1237,4.1289,4.1366,4.1426,4.1461,4.1503,4.1565,4.1651,4.1619,4.1651,4.1642,4.1695,4.1809,4.1653,4.1653,4.1678,4.194,4.1964,4.1986,4.1791,4.1795,4.1798,4.1936,0,4.1226,4.1362,4.1359,4.1484,4.1547,4.1515,4.1582,4.1616,4.1626,4.1679,4.1689,4.1749,4.1703,4.1722,4.1773,4.1784,4.186,4.1774,4.1846,4.1848,4.1835,4.201,4.2037,4.2166,4.1953,4.1956,4.1959,0,4.1408,4.1458,4.159,4.1626,4.1652,4.1713,4.1765,4.1818,4.1855,4.1858,4.1894,4.1877,4.1952,4.1889,4.199,4.1932,4.1961,4.1971,4.1976,4.198,4.1909,4.2017,4.2207,4.2226,4.1987,4.1985,4.1983,0,4.1526,4.1626,4.1717,4.1741,4.1786,4.1828,4.1848,4.1882,4.1918,4.1963,4.1985,4.2039,4.2068,4.2108,4.2105,4.206,4.2207,4.2144,4.221,4.221,4.2241,4.2238,4.2435,4.2264,4.2263,4.2263,4.2262,0,4.1682,4.1764,4.177,4.1826,4.1916,4.191,4.1998,4.2014,4.2044,4.21,4.2076,4.2129,4.2123,4.2176,4.2174,4.2257,4.2271,4.2273,4.2271,4.2274,4.2274,4.2291,4.2282,4.2268,4.2267,4.2266,4.2265,0,4.1828,4.1836,4.1933,4.1968,4.1979,4.2043,4.2071,4.2123,4.2131,4.2202,4.2219,4.223,4.2291,4.2293,4.2362,4.2361,4.2461,4.245,4.2449,4.2446,4.251,4.2503,4.2724,4.2751,4.2564,4.2566,4.2567,0,4.1926,4.1989,4.203,4.2067,4.209,4.215,4.2186,4.2183,4.222,4.2267,4.2313,4.2372,4.2418,4.2516,4.2529,4.2581,4.257,4.2644,4.2577,4.2578,4.2568,4.2564,4.2568,4.2656,4.2658,4.266,4.2661,0,4.2099,4.21,4.2154,4.2209,4.2253,4.2296,4.2336,4.2367,4.2367,4.2411,4.2473,4.251,4.2581,4.2638,4.2689,4.2707,4.2683,4.2682,4.27,4.2702,4.2698,4.2698,4.2482,4.2677,4.2675,4.2674,4.2673,4.2672,4.2223,4.2276,4.2313,4.2373,4.2403,4.244,4.249,4.2505,4.2557,4.2616,4.261,4.2679,4.2712,4.2778,4.28,4.2852,4.2826,4.2852,4.2858,4.2864,4.287,4.2692,4.2862,4.2861,4.2861,4.286,4.286,0,4.2393,4.2415,4.2471,4.2527,4.2574,4.255,4.2592,4.2632,4.2694,4.2728,4.2775,4.2845,4.29,4.2918,4.2971,4.3009,4.3,4.3023,4.3019,4.3023,4.2891,4.287,4.303,4.303,4.303,4.303,4.303,4.303,4.2486,4.2574,4.2579,4.2679,4.27,4.2769,4.2795,4.2828,4.2855,4.2935,4.2982,4.2994,4.3021,4.3075,4.3124,4.3127,4.3147,4.3174,4.3173,4.305,4.3032,4.3016,4.2996,4.3179,4.318,4.33,4.3301,4.3302]}]]